| time (UTC) | temp F | wind direction | speed MPH | gust MPH | rain 1hr in | rain 24hr in | rain mn in | humidity % | barometer mb |
| 20260506080856 | 57 | 269 | 6.0 | 17.0 | 0.00 | 0.13 | 0.13 | 88 | 1014.2 |
| 20260506073044 | 60 | 352 | 2.0 | 8.0 | 0.15 | 0.01 | 0.01 | 75 | 1013.5 |
| 20260506071908 | 62 | 288 | 3.0 | 9.0 | 0.00 | 0.00 | 0.00 | 70 | 1013.4 |
| 20260506071416 | 63 | 340 | 2.0 | 9.0 | 0.00 | 0.00 | 0.00 | 68 | 1013.3 |
| 20260506070308 | 63 | 1 | 3.0 | 13.0 | 0.00 | 0.00 | 0.00 | 64 | 1013.1 |
| 20260506062120 | 64 | 347 | 5.0 | 12.0 | 0.00 | 0.00 | 0.00 | 64 | 1013.6 |
| 20260506061628 | 64 | 319 | 5.0 | 12.0 | 0.00 | 0.00 | 0.00 | 63 | 1013.6 |
| 20260506061128 | 64 | 345 | 4.0 | 12.0 | 0.00 | 0.00 | 0.00 | 62 | 1013.7 |
| 20260506060633 | 64 | 302 | 4.0 | 15.0 | 0.00 | 0.00 | 0.00 | 62 | 1013.6 |
| 20260506051010 | 65 | 357 | 5.0 | 13.0 | 0.00 | 0.00 | 0.00 | 59 | 1014.3 |
| 20260506050512 | 65 | 349 | 4.0 | 11.0 | 0.00 | 0.00 | 0.00 | 59 | 1014.4 |
| 20260506045008 | 65 | 6 | 4.0 | 11.0 | 0.00 | 0.00 | 0.00 | 59 | 1014.7 |
| 20260506044512 | 66 | 344 | 4.0 | 10.0 | 0.00 | 0.00 | 0.00 | 58 | 1014.9 |
| 20260506044014 | 65 | 41 | 4.0 | 10.0 | 0.00 | 0.00 | 0.00 | 58 | 1014.9 |
| 20260506043506 | 65 | 347 | 4.0 | 9.0 | 0.00 | 0.00 | 0.00 | 59 | 1014.9 |
| 20260506042405 | 65 | 267 | 4.0 | 12.0 | 0.00 | 0.00 | 0.00 | 59 | 1015.2 |
| 20260506041252 | 65 | 299 | 4.0 | 13.0 | 0.00 | 0.00 | 0.00 | 58 | 1015.2 |
| 20260506040733 | 65 | 18 | 4.0 | 13.0 | 0.00 | 0.00 | 0.00 | 59 | 1015.2 |
| 20260506040239 | 65 | 48 | 5.0 | 13.0 | 0.00 | 0.00 | 0.00 | 59 | 1015.3 |
| 20260506035745 | 65 | 66 | 4.0 | 11.0 | 0.00 | 0.00 | 0.00 | 59 | 1015.4 |
| 20260506035235 | 65 | 333 | 4.0 | 11.0 | 0.00 | 0.00 | 0.00 | 60 | 1015.5 |
| 20260506034737 | 65 | 18 | 4.0 | 10.0 | 0.00 | 0.00 | 0.00 | 59 | 1015.6 |
| 20260506034242 | 65 | 303 | 4.0 | 10.0 | 0.00 | 0.00 | 0.00 | 60 | 1015.8 |
| 20260506033734 | 64 | 345 | 4.0 | 10.0 | 0.00 | 0.00 | 0.00 | 60 | 1015.9 |
| 20260506033240 | 64 | 23 | 4.0 | 8.0 | 0.00 | 0.00 | 0.00 | 60 | 1016.0 |
| 20260506031452 | 64 | 283 | 3.0 | 10.0 | 0.00 | 0.00 | 0.00 | 61 | 1016.2 |
| 20260506030937 | 64 | 326 | 3.0 | 10.0 | 0.00 | 0.00 | 0.00 | 61 | 1016.3 |
| 20260506030445 | 64 | 307 | 3.0 | 8.0 | 0.00 | 0.00 | 0.00 | 62 | 1016.3 |
| 20260506025931 | 64 | 9 | 2.0 | 8.0 | 0.00 | 0.00 | 0.00 | 61 | 1016.5 |
| 20260506025424 | 64 | 258 | 2.0 | 6.0 | 0.00 | 0.00 | 0.00 | 62 | 1016.5 |
| 20260506024923 | 64 | 329 | 2.0 | 8.0 | 0.00 | 0.00 | 0.00 | 62 | 1016.6 |
| 20260506024414 | 64 | 283 | 2.0 | 8.0 | 0.00 | 0.00 | 0.00 | 61 | 1016.8 |
| 20260506023908 | 64 | 264 | 2.0 | 8.0 | 0.00 | 0.00 | 0.00 | 60 | 1016.9 |
| 20260506023354 | 64 | 333 | 2.0 | 8.0 | 0.00 | 0.00 | 0.00 | 60 | 1017.0 |
| 20260506022851 | 64 | 328 | 2.0 | 8.0 | 0.00 | 0.00 | 0.00 | 60 | 1017.1 |
| 20260506022344 | 64 | 46 | 2.0 | 8.0 | 0.00 | 0.00 | 0.00 | 60 | 1017.2 |
| 20260506021839 | 64 | 314 | 2.0 | 8.0 | 0.00 | 0.00 | 0.00 | 60 | 1017.4 |
| 20260506021328 | 64 | 292 | 2.0 | 7.0 | 0.00 | 0.00 | 0.00 | 60 | 1017.5 |
| 20260506020828 | 64 | 14 | 2.0 | 7.0 | 0.00 | 0.00 | 0.00 | 62 | 1017.5 |
| 20260506020327 | 63 | 253 | 2.0 | 7.0 | 0.00 | 0.00 | 0.00 | 63 | 1017.7 |
| 20260506015833 | 63 | 342 | 2.0 | 7.0 | 0.00 | 0.00 | 0.00 | 64 | 1017.8 |
| 20260506015336 | 62 | 283 | 2.0 | 7.0 | 0.00 | 0.00 | 0.00 | 64 | 1017.9 |
| 20260506014833 | 62 | 328 | 2.0 | 6.0 | 0.00 | 0.00 | 0.00 | 65 | 1018.0 |
| 20260506014335 | 62 | 312 | 1.0 | 10.0 | 0.00 | 0.00 | 0.00 | 65 | 1018.1 |
| 20260506013831 | 62 | 16 | 2.0 | 10.0 | 0.00 | 0.00 | 0.00 | 65 | 1018.3 |
| 20260506013330 | 62 | 328 | 3.0 | 10.0 | 0.00 | 0.00 | 0.00 | 65 | 1018.5 |
| 20260506012838 | 62 | 272 | 3.0 | 10.0 | 0.00 | 0.00 | 0.00 | 65 | 1018.6 |
| 20260506012333 | 62 | 331 | 4.0 | 9.0 | 0.00 | 0.00 | 0.00 | 65 | 1018.6 |
| 20260506011829 | 62 | 286 | 3.0 | 11.0 | 0.00 | 0.00 | 0.00 | 66 | 1018.6 |
| 20260506011336 | 62 | 291 | 3.0 | 11.0 | 0.00 | 0.00 | 0.00 | 67 | 1018.7 |
| 20260506010817 | 61 | 269 | 3.0 | 11.0 | 0.00 | 0.00 | 0.00 | 67 | 1018.7 |
| 20260506010325 | 61 | 281 | 3.0 | 11.0 | 0.00 | 0.00 | 0.00 | 67 | 1018.7 |
| 20260506004453 | 61 | 309 | 2.0 | 6.0 | 0.00 | 0.00 | 0.00 | 66 | 1018.9 |
| 20260506004001 | 61 | 4 | 2.0 | 10.0 | 0.00 | 0.00 | 0.00 | 66 | 1019.0 |
| 20260506003451 | 61 | 347 | 2.0 | 10.0 | 0.00 | 0.00 | 0.00 | 66 | 1019.1 |
| 20260506003000 | 61 | 343 | 2.0 | 10.0 | 0.00 | 0.00 | 0.00 | 66 | 1019.1 |
| 20260506002448 | 61 | 272 | 2.0 | 10.0 | 0.00 | 0.00 | 0.00 | 66 | 1019.2 |
| 20260506001938 | 61 | 252 | 2.0 | 6.0 | 0.00 | 0.00 | 0.00 | 66 | 1019.2 |
| 20260506000758 | 61 | 287 | 2.0 | 7.0 | 0.00 | 0.00 | 0.00 | 66 | 1019.3 |
| 20260506000250 | 61 | 241 | 1.0 | 7.0 | 0.00 | 0.00 | 0.00 | 66 | 1019.4 |
| 20260505235758 | 61 | 270 | 1.0 | 9.0 | 0.00 | 0.00 | 0.00 | 66 | 1019.4 |
| 20260505235254 | 60 | 354 | 2.0 | 9.0 | 0.00 | 0.00 | 0.00 | 66 | 1019.4 |
| 20260505234735 | 60 | 288 | 2.0 | 9.0 | 0.00 | 0.00 | 0.00 | 66 | 1019.3 |
| 20260505234237 | 60 | 6 | 2.0 | 9.0 | 0.00 | 0.00 | 0.00 | 66 | 1019.4 |
| 20260505233746 | 60 | 34 | 1.0 | 7.0 | 0.00 | 0.00 | 0.00 | 67 | 1019.4 |
| 20260505233244 | 60 | 323 | 1.0 | 7.0 | 0.00 | 0.00 | 0.00 | 67 | 1019.4 |
| 20260505232748 | 60 | 16 | 1.0 | 7.0 | 0.00 | 0.00 | 0.00 | 67 | 1019.6 |
| 20260505232247 | 60 | 253 | 2.0 | 6.0 | 0.00 | 0.00 | 0.00 | 67 | 1019.6 |
| 20260505231102 | 60 | 336 | 1.0 | 7.0 | 0.00 | 0.00 | 0.00 | 68 | 1019.7 |
| 20260505230543 | 60 | 18 | 1.0 | 7.0 | 0.00 | 0.00 | 0.00 | 68 | 1019.7 |
| 20260505230031 | 59 | 38 | 1.0 | 7.0 | 0.00 | 0.00 | 0.00 | 68 | 1019.7 |
| 20260505225511 | 59 | 314 | 2.0 | 7.0 | 0.00 | 0.00 | 0.00 | 68 | 1019.7 |
| 20260505224952 | 59 | 329 | 1.0 | 6.0 | 0.00 | 0.00 | 0.00 | 69 | 1019.8 |
| 20260505224433 | 59 | 294 | 1.0 | 6.0 | 0.00 | 0.00 | 0.00 | 69 | 1019.8 |
| 20260505223916 | 59 | 345 | 1.0 | 5.0 | 0.00 | 0.00 | 0.00 | 69 | 1019.8 |
| 20260505223406 | 59 | 311 | 1.0 | 7.0 | 0.00 | 0.00 | 0.00 | 69 | 1019.7 |
| 20260505222848 | 59 | 350 | 1.0 | 7.0 | 0.00 | 0.00 | 0.00 | 69 | 1019.8 |
| 20260505222338 | 59 | 345 | 1.0 | 7.0 | 0.00 | 0.00 | 0.00 | 69 | 1019.7 |
| 20260505221847 | 59 | 297 | 1.0 | 7.0 | 0.00 | 0.00 | 0.00 | 70 | 1019.8 |
| 20260505221341 | 59 | 336 | 2.0 | 6.0 | 0.00 | 0.00 | 0.00 | 70 | 1019.8 |
| 20260505220849 | 59 | 350 | 1.0 | 6.0 | 0.00 | 0.00 | 0.00 | 70 | 1019.9 |
| 20260505220354 | 59 | 12 | 1.0 | 6.0 | 0.00 | 0.00 | 0.00 | 70 | 1019.9 |
| 20260505215840 | 59 | 257 | 1.0 | 6.0 | 0.00 | 0.00 | 0.00 | 70 | 1019.8 |
| 20260505215328 | 59 | 301 | 1.0 | 7.0 | 0.00 | 0.00 | 0.00 | 71 | 1019.7 |
| 20260505214827 | 59 | 281 | 1.0 | 7.0 | 0.00 | 0.00 | 0.00 | 70 | 1019.8 |
| 20260505214318 | 59 | 315 | 2.0 | 7.0 | 0.00 | 0.00 | 0.00 | 70 | 1019.8 |
| 20260505212530 | 59 | 324 | 2.0 | 7.0 | 0.00 | 0.00 | 0.00 | 70 | 1019.8 |
| 20260505212028 | 59 | 279 | 2.0 | 9.0 | 0.00 | 0.00 | 0.00 | 70 | 1019.7 |
| 20260505211526 | 59 | 291 | 2.0 | 9.0 | 0.00 | 0.00 | 0.00 | 69 | 1019.7 |
| 20260505211015 | 59 | 305 | 2.0 | 9.0 | 0.00 | 0.00 | 0.00 | 69 | 1019.7 |
| 20260505210521 | 59 | 277 | 2.0 | 9.0 | 0.00 | 0.00 | 0.00 | 69 | 1019.8 |
| 20260505210017 | 59 | 262 | 2.0 | 7.0 | 0.00 | 0.00 | 0.00 | 70 | 1019.8 |
| 20260505205456 | 59 | 262 | 2.0 | 7.0 | 0.00 | 0.00 | 0.00 | 70 | 1019.8 |
| 20260505204945 | 59 | 312 | 2.0 | 10.0 | 0.00 | 0.00 | 0.00 | 71 | 1019.8 |
| 20260505204440 | 59 | 302 | 2.0 | 10.0 | 0.00 | 0.00 | 0.00 | 70 | 1019.8 |
| 20260505203944 | 59 | 272 | 3.0 | 10.0 | 0.00 | 0.00 | 0.00 | 69 | 1019.8 |
| 20260505203432 | 59 | 314 | 3.0 | 10.0 | 0.00 | 0.00 | 0.00 | 70 | 1019.8 |
| 20260505202920 | 59 | 286 | 2.0 | 7.0 | 0.00 | 0.00 | 0.00 | 71 | 1019.8 |
| 20260505201742 | 59 | 274 | 2.0 | 7.0 | 0.00 | 0.00 | 0.00 | 70 | 1019.9 |
| 20260505201232 | 59 | 279 | 2.0 | 6.0 | 0.00 | 0.00 | 0.00 | 71 | 1019.9 |
| 20260505200712 | 59 | 298 | 1.0 | 5.0 | 0.00 | 0.00 | 0.00 | 72 | 1019.8 |
| 20260505200154 | 59 | 315 | 1.0 | 7.0 | 0.00 | 0.00 | 0.00 | 71 | 1019.8 |
| 20260505195646 | 59 | 311 | 1.0 | 7.0 | 0.00 | 0.00 | 0.00 | 71 | 1019.8 |
| 20260505195134 | 59 | 286 | 1.0 | 7.0 | 0.00 | 0.00 | 0.00 | 72 | 1019.8 |
| 20260505194631 | 59 | 280 | 1.0 | 7.0 | 0.00 | 0.00 | 0.00 | 72 | 1019.8 |
| 20260505192819 | 59 | 241 | 0.0 | 4.0 | 0.00 | 0.00 | 0.00 | 72 | 1019.8 |
| 20260505191640 | 59 | 309 | 0.0 | 3.0 | 0.00 | 0.00 | 0.00 | 72 | 1019.9 |
| 20260505191137 | 59 | 283 | 0.0 | 2.0 | 0.00 | 0.00 | 0.00 | 72 | 1019.9 |
| 20260505190635 | 59 | 336 | 0.0 | 4.0 | 0.00 | 0.00 | 0.00 | 71 | 1019.9 |
| 20260505190139 | 58 | 277 | 0.0 | 3.0 | 0.00 | 0.00 | 0.00 | 71 | 1019.9 |
| 20260505185629 | 58 | 329 | 0.0 | 0.0 | 0.00 | 0.00 | 0.00 | 72 | 1019.9 |
| 20260505185121 | 59 | 346 | 0.0 | 0.0 | 0.00 | 0.00 | 0.00 | 72 | 1019.9 |
| 20260505184610 | 58 | 305 | 0.0 | 2.0 | 0.00 | 0.00 | 0.00 | 72 | 1019.9 |
| 20260505184103 | 58 | 23 | 0.0 | 3.0 | 0.00 | 0.00 | 0.00 | 72 | 1019.9 |
| 20260505183549 | 58 | 329 | 0.0 | 3.0 | 0.00 | 0.00 | 0.00 | 72 | 1019.9 |
| 20260505183053 | 59 | 11 | 0.0 | 3.0 | 0.00 | 0.00 | 0.00 | 73 | 1019.9 |
| 20260505182548 | 58 | 307 | 0.0 | 3.0 | 0.00 | 0.00 | 0.00 | 73 | 1019.9 |
| 20260505182030 | 59 | 352 | 0.0 | 5.0 | 0.00 | 0.00 | 0.00 | 72 | 1019.9 |
| 20260505181534 | 58 | 286 | 0.0 | 5.0 | 0.00 | 0.00 | 0.00 | 73 | 1019.9 |
| 20260505181042 | 58 | 317 | 0.0 | 4.0 | 0.00 | 0.00 | 0.00 | 73 | 1019.9 |
| 20260505180529 | 58 | 264 | 0.0 | 4.0 | 0.00 | 0.00 | 0.00 | 73 | 1019.9 |
| 20260505180019 | 58 | 264 | 0.0 | 4.0 | 0.00 | 0.00 | 0.00 | 73 | 1019.9 |
| 20260505175529 | 58 | 326 | 0.0 | 3.0 | 0.00 | 0.00 | 0.00 | 73 | 1020.0 |
| 20260505174407 | 58 | 357 | 0.0 | 3.0 | 0.00 | 0.00 | 0.00 | 73 | 1020.0 |
| 20260505173914 | 58 | 316 | 0.0 | 3.0 | 0.00 | 0.00 | 0.00 | 73 | 1020.1 |
| 20260505172750 | 58 | 316 | 0.0 | 1.0 | 0.00 | 0.00 | 0.00 | 73 | 1020.1 |
| 20260505172249 | 59 | 286 | 0.0 | 1.0 | 0.00 | 0.00 | 0.00 | 73 | 1020.2 |
| 20260505171742 | 59 | 316 | 0.0 | 3.0 | 0.00 | 0.00 | 0.00 | 73 | 1020.2 |
| 20260505171249 | 58 | 300 | 0.0 | 2.0 | 0.00 | 0.00 | 0.00 | 73 | 1020.2 |
| 20260505170742 | 59 | 302 | 0.0 | 2.0 | 0.00 | 0.00 | 0.00 | 73 | 1020.3 |
| 20260505170225 | 59 | 314 | 0.0 | 2.0 | 0.00 | 0.00 | 0.00 | 73 | 1020.3 |
| 20260505165726 | 59 | 41 | 0.0 | 2.0 | 0.00 | 0.00 | 0.00 | 73 | 1020.3 |
| 20260505165232 | 59 | 321 | 0.0 | 4.0 | 0.00 | 0.00 | 0.00 | 72 | 1020.4 |
| 20260505164734 | 59 | 267 | 0.0 | 4.0 | 0.00 | 0.00 | 0.00 | 72 | 1020.4 |
| 20260505164223 | 58 | 315 | 0.0 | 4.0 | 0.00 | 0.00 | 0.00 | 73 | 1020.5 |
| 20260505163704 | 58 | 331 | 0.0 | 4.0 | 0.00 | 0.00 | 0.00 | 73 | 1020.5 |
| 20260505162549 | 58 | 317 | 0.0 | 0.0 | 0.00 | 0.00 | 0.00 | 74 | 1020.5 |
| 20260505162033 | 58 | 301 | 0.0 | 3.0 | 0.00 | 0.00 | 0.00 | 75 | 1020.6 |
| 20260505160229 | 59 | 273 | 0.0 | 3.0 | 0.00 | 0.00 | 0.00 | 77 | 1020.7 |
| 20260505153029 | 59 | 281 | 0.0 | 3.0 | 0.00 | 0.00 | 0.00 | 77 | 1021.0 |
| 20260505152537 | 59 | 298 | 0.0 | 1.0 | 0.00 | 0.00 | 0.00 | 77 | 1021.1 |
| 20260505152028 | 59 | 328 | 0.0 | 0.0 | 0.00 | 0.00 | 0.00 | 77 | 1021.1 |
| 20260505151528 | 59 | 315 | 0.0 | 6.0 | 0.00 | 0.00 | 0.00 | 77 | 1021.1 |
| 20260505151014 | 59 | 274 | 1.0 | 6.0 | 0.00 | 0.00 | 0.00 | 78 | 1021.1 |
| 20260505150524 | 59 | 311 | 0.0 | 4.0 | 0.00 | 0.00 | 0.00 | 77 | 1021.2 |
| 20260505140256 | 59 | 267 | 1.0 | 5.0 | 0.00 | 0.00 | 0.00 | 77 | 1021.2 |
| 20260505130221 | 59 | 281 | 1.0 | 4.0 | 0.00 | 0.00 | 0.00 | 76 | 1021.5 |
| 20260505125024 | 59 | 305 | 0.0 | 4.0 | 0.00 | 0.00 | 0.00 | 77 | 1021.6 |
| 20260505124524 | 59 | 310 | 0.0 | 4.0 | 0.00 | 0.00 | 0.00 | 76 | 1021.6 |
| 20260505124032 | 59 | 281 | 0.0 | 4.0 | 0.00 | 0.00 | 0.00 | 76 | 1021.7 |
| 20260505123533 | 59 | 302 | 0.0 | 4.0 | 0.00 | 0.00 | 0.00 | 76 | 1021.7 |
| 20260505123016 | 60 | 274 | 1.0 | 4.0 | 0.00 | 0.00 | 0.00 | 76 | 1021.8 |
| 20260505121838 | 60 | 305 | 1.0 | 5.0 | 0.00 | 0.00 | 0.00 | 76 | 1021.8 |
| 20260505120732 | 60 | 280 | 2.0 | 5.0 | 0.00 | 0.00 | 0.00 | 77 | 1021.8 |
| 20260505120226 | 60 | 269 | 2.0 | 5.0 | 0.00 | 0.00 | 0.00 | 76 | 1021.8 |
| 20260505115723 | 60 | 281 | 1.0 | 4.0 | 0.00 | 0.00 | 0.00 | 76 | 1021.9 |
| 20260505115208 | 60 | 259 | 1.0 | 4.0 | 0.00 | 0.00 | 0.00 | 77 | 1021.9 |
| 20260505114651 | 60 | 273 | 0.0 | 5.0 | 0.00 | 0.00 | 0.00 | 76 | 1021.9 |
| 20260505114146 | 60 | 322 | 0.0 | 5.0 | 0.00 | 0.00 | 0.00 | 76 | 1021.9 |
| 20260505113654 | 60 | 277 | 0.0 | 5.0 | 0.00 | 0.00 | 0.00 | 76 | 1021.9 |
| 20260505113147 | 60 | 288 | 1.0 | 5.0 | 0.00 | 0.00 | 0.00 | 77 | 1021.8 |
| 20260505112645 | 60 | 298 | 1.0 | 5.0 | 0.00 | 0.00 | 0.00 | 76 | 1021.9 |
| 20260505112142 | 60 | 257 | 0.0 | 4.0 | 0.00 | 0.00 | 0.00 | 76 | 1021.9 |
| 20260505111639 | 60 | 268 | 1.0 | 2.0 | 0.00 | 0.00 | 0.00 | 76 | 1021.8 |
| 20260505111305 | 60 | 262 | 1.0 | 5.0 | 0.00 | 0.00 | 0.00 | 76 | 1021.8 |
| 20260505110815 | 60 | 305 | 1.0 | 5.0 | 0.00 | 0.00 | 0.00 | 76 | 1021.8 |
| 20260505110303 | 60 | 271 | 0.0 | 4.0 | 0.00 | 0.00 | 0.00 | 76 | 1021.8 |
| 20260505101956 | 60 | 275 | 1.0 | 4.0 | 0.00 | 0.03 | 0.00 | 75 | 1021.8 |
| 20260505101456 | 61 | 294 | 1.0 | 4.0 | 0.00 | 0.03 | 0.00 | 75 | 1021.7 |
| 20260505100954 | 61 | 231 | 1.0 | 8.0 | 0.00 | 0.03 | 0.00 | 75 | 1021.7 |
| 20260505100503 | 60 | 288 | 2.0 | 8.0 | 0.00 | 0.03 | 0.00 | 74 | 1021.7 |
| 20260505095312 | 61 | 299 | 1.0 | 5.0 | 0.00 | 0.03 | 0.00 | 75 | 1021.7 |
| 20260505094759 | 61 | 301 | 1.0 | 5.0 | 0.00 | 0.03 | 0.00 | 74 | 1021.7 |
| 20260505093615 | 61 | 274 | 1.0 | 3.0 | 0.00 | 0.03 | 0.00 | 74 | 1021.7 |
| 20260505093057 | 61 | 291 | 0.0 | 2.0 | 0.00 | 0.03 | 0.00 | 73 | 1021.7 |
| 20260505092550 | 61 | 317 | 0.0 | 3.0 | 0.00 | 0.03 | 0.00 | 73 | 1021.7 |
| 20260505092054 | 61 | 279 | 0.0 | 3.0 | 0.00 | 0.03 | 0.00 | 73 | 1021.6 |
| 20260505091552 | 61 | 266 | 1.0 | 3.0 | 0.00 | 0.03 | 0.00 | 72 | 1021.7 |
| 20260505091059 | 61 | 271 | 1.0 | 3.0 | 0.00 | 0.03 | 0.00 | 72 | 1021.6 |
| 20260505085931 | 60 | 260 | 0.0 | 3.0 | 0.00 | 0.03 | 0.00 | 72 | 1021.5 |
| 20260505085419 | 60 | 289 | 0.0 | 3.0 | 0.00 | 0.03 | 0.00 | 72 | 1021.4 |
| 20260505084901 | 60 | 257 | 0.0 | 2.0 | 0.00 | 0.03 | 0.00 | 73 | 1021.4 |
| 20260505084404 | 60 | 276 | 0.0 | 2.0 | 0.00 | 0.03 | 0.00 | 74 | 1021.4 |
| 20260505083855 | 60 | 247 | 0.0 | 0.0 | 0.00 | 0.03 | 0.00 | 74 | 1021.4 |
| 20260505083357 | 60 | 247 | 0.0 | 0.0 | 0.00 | 0.03 | 0.00 | 74 | 1021.3 |